EZY89AL EGHH-GCTS

Flight info

Callsign EZY89AL
Flight time 3h 51m
Altitude 37000
Route DCT LELNA DCT BALDA DCT ABUPI DCT CAS DCT BEXAL UN866 KONBA KONBA1G
Aircraft A320/M-V/N

Departure

Time 2026-05-05 16:19
Airport Bournemouth Airport (EGHH)

Arrival

Time 2026-05-05 20:10
Airport Tenerife Sur Airport (GCTS)
Time Latitude Longitude Altitude Speed Heading
2026-05-05 15:27 50.77767 -1.83373 43 ft 0 kts 86°
2026-05-05 15:49 50.77767 -1.83374 42 ft 2 kts 86°
2026-05-05 15:49 50.77768 -1.83414 43 ft 4 kts 104°
2026-05-05 15:50 50.77779 -1.83450 41 ft 4 kts 137°
2026-05-05 15:50 50.77799 -1.83468 38 ft 2 kts 176°
2026-05-05 15:50 50.77801 -1.83468 38 ft 0 kts 176°
2026-05-05 15:52 50.77782 -1.83466 40 ft 7 kts 175°
2026-05-05 15:52 50.77703 -1.83471 43 ft 15 kts 187°
2026-05-05 15:53 50.77586 -1.83532 43 ft 20 kts 233°
2026-05-05 15:53 50.77575 -1.83731 43 ft 18 kts 272°
2026-05-05 15:53 50.77595 -1.83938 44 ft 20 kts 282°
2026-05-05 15:53 50.77629 -1.84159 43 ft 22 kts 285°
2026-05-05 15:54 50.77678 -1.84389 44 ft 23 kts 287°
2026-05-05 15:54 50.77714 -1.84635 42 ft 24 kts 279°
2026-05-05 15:54 50.77768 -1.84882 45 ft 24 kts 300°
2026-05-05 15:54 50.77845 -1.85081 48 ft 11 kts 330°
2026-05-05 15:55 50.77877 -1.85030 48 ft 6 kts 71°
2026-05-05 15:55 50.77919 -1.84781 49 ft 60 kts 76°
2026-05-05 15:55 50.78078 -1.83827 44 ft 71 kts 74°
2026-05-05 15:55 50.78112 -1.83625 45 ft 8 kts 76°
2026-05-05 15:56 50.78135 -1.83476 46 ft 20 kts 76°
2026-05-05 15:56 50.78171 -1.83256 44 ft 21 kts 75°
2026-05-05 15:56 50.78189 -1.83056 44 ft 12 kts 128°
2026-05-05 15:56 50.78130 -1.83083 43 ft 10 kts 231°
2026-05-05 15:57 50.78089 -1.83173 42 ft 13 kts 235°
2026-05-05 15:57 50.78036 -1.83318 43 ft 15 kts 243°
2026-05-05 15:57 50.77986 -1.83452 43 ft 14 kts 228°
2026-05-05 15:57 50.77899 -1.83484 41 ft 13 kts 172°
2026-05-05 15:58 50.77819 -1.83469 43 ft 10 kts 175°
2026-05-05 15:58 50.77770 -1.83445 43 ft 6 kts 105°
2026-05-05 15:58 50.77766 -1.83397 42 ft 4 kts 85°
2026-05-05 15:58 50.77767 -1.83367 42 ft 0 kts 87°
2026-05-05 16:11 50.77769 -1.83417 43 ft 4 kts 110°
2026-05-05 16:12 50.77782 -1.83452 41 ft 4 kts 141°
2026-05-05 16:12 50.77803 -1.83468 38 ft 0 kts 176°
2026-05-05 16:15 50.77723 -1.83467 43 ft 16 kts 189°
2026-05-05 16:16 50.77574 -1.83615 43 ft 13 kts 268°
2026-05-05 16:16 50.77585 -1.83855 43 ft 12 kts 280°
2026-05-05 16:17 50.77643 -1.84230 42 ft 23 kts 288°
2026-05-05 16:17 50.77695 -1.84485 45 ft 25 kts 284°
2026-05-05 16:18 50.77815 -1.85018 43 ft 19 kts 299°
2026-05-05 16:18 50.77874 -1.85048 46 ft 10 kts 64°
2026-05-05 16:18 50.78056 -1.83957 43 ft 119 kts 75°
2026-05-05 16:19 50.78323 -1.82404 176 ft 164 kts 73°
2026-05-05 16:19 50.78612 -1.80630 887 ft 170 kts 71°
2026-05-05 16:19 50.78833 -1.76876 2175 ft 190 kts 113°
2026-05-05 16:20 50.76379 -1.74798 2926 ft 232 kts 166°
2026-05-05 16:20 50.72823 -1.73768 3740 ft 275 kts 171°
2026-05-05 16:21 50.69196 -1.72969 6176 ft 252 kts 169°
2026-05-05 16:22 50.64275 -1.71642 7808 ft 286 kts 165°
2026-05-05 16:22 50.60374 -1.70061 9534 ft 292 kts 165°
2026-05-05 16:23 50.56277 -1.68528 10544 ft 322 kts 167°
2026-05-05 16:23 50.54007 -1.67747 10756 ft 345 kts 168°
2026-05-05 16:23 50.49073 -1.67902 11850 ft 364 kts 193°
2026-05-05 16:24 50.46665 -1.69204 12541 ft 369 kts 205°
2026-05-05 16:24 50.44394 -1.71122 13237 ft 373 kts 208°
2026-05-05 16:24 50.39804 -1.75103 14527 ft 381 kts 208°
2026-05-05 16:25 50.37472 -1.77121 15156 ft 384 kts 208°
2026-05-05 16:25 50.32786 -1.81160 16378 ft 390 kts 208°
2026-05-05 16:25 50.30397 -1.83210 16993 ft 393 kts 208°
2026-05-05 16:26 50.25562 -1.87361 18152 ft 400 kts 208°
2026-05-05 16:26 50.20654 -1.91566 19148 ft 405 kts 208°
2026-05-05 16:27 50.18173 -1.93690 19665 ft 407 kts 208°
2026-05-05 16:27 50.15674 -1.95825 20117 ft 412 kts 208°
2026-05-05 16:27 50.13146 -1.97981 20581 ft 415 kts 208°
2026-05-05 16:27 50.10602 -2.00152 21064 ft 417 kts 208°
2026-05-05 16:28 50.08043 -2.02333 21536 ft 420 kts 208°
2026-05-05 16:28 50.05471 -2.04524 21997 ft 423 kts 208°
2026-05-05 16:28 50.02914 -2.06696 22483 ft 425 kts 208°
2026-05-05 16:28 50.00308 -2.08903 22923 ft 428 kts 208°
2026-05-05 16:29 49.97672 -2.11101 23360 ft 431 kts 207°
2026-05-05 16:29 49.94985 -2.13177 23786 ft 432 kts 205°
2026-05-05 16:29 49.92246 -2.15156 24139 ft 435 kts 204°
2026-05-05 16:29 49.89473 -2.17084 24491 ft 438 kts 203°
2026-05-05 16:30 49.86686 -2.19000 24885 ft 439 kts 204°
2026-05-05 16:30 49.83894 -2.20931 25278 ft 440 kts 204°
2026-05-05 16:30 49.81097 -2.22888 25656 ft 441 kts 203°
2026-05-05 16:30 49.78304 -2.24865 26067 ft 442 kts 204°
2026-05-05 16:31 49.75511 -2.26855 26467 ft 441 kts 204°
2026-05-05 16:31 49.72723 -2.28849 26911 ft 441 kts 203°
2026-05-05 16:31 49.69929 -2.30847 27209 ft 444 kts 203°
2026-05-05 16:31 49.67112 -2.32852 27487 ft 447 kts 203°
2026-05-05 16:32 49.64285 -2.34858 27793 ft 448 kts 202°
2026-05-05 16:32 49.61481 -2.36843 28108 ft 450 kts 202°
2026-05-05 16:32 49.58628 -2.38859 28416 ft 451 kts 203°
2026-05-05 16:32 49.55767 -2.40880 28724 ft 452 kts 202°
2026-05-05 16:33 49.52899 -2.42899 29028 ft 454 kts 203°
2026-05-05 16:33 49.50028 -2.44914 29412 ft 453 kts 202°
2026-05-05 16:33 49.47154 -2.46923 29789 ft 453 kts 203°
2026-05-05 16:33 49.44276 -2.48930 30122 ft 454 kts 202°
2026-05-05 16:34 49.41404 -2.50937 30464 ft 453 kts 203°
2026-05-05 16:34 49.38540 -2.52945 30813 ft 452 kts 202°
2026-05-05 16:34 49.35688 -2.54947 31156 ft 451 kts 204°
2026-05-05 16:34 49.32871 -2.56924 31513 ft 449 kts 203°
2026-05-05 16:35 49.30029 -2.58912 31863 ft 448 kts 203°
2026-05-05 16:35 49.27197 -2.60883 32229 ft 447 kts 203°
2026-05-05 16:35 49.24371 -2.62841 32639 ft 444 kts 202°
2026-05-05 16:35 49.21528 -2.64809 33020 ft 442 kts 203°
2026-05-05 16:36 49.18729 -2.66746 33355 ft 442 kts 204°
2026-05-05 16:36 49.15924 -2.68690 33597 ft 443 kts 203°
2026-05-05 16:36 49.13155 -2.70607 33885 ft 443 kts 204°
2026-05-05 16:36 49.10345 -2.72553 34159 ft 443 kts 204°
2026-05-05 16:37 49.07538 -2.74493 34432 ft 443 kts 204°
2026-05-05 16:37 49.04732 -2.76426 34655 ft 443 kts 203°
2026-05-05 16:37 49.01921 -2.78357 34952 ft 442 kts 203°
2026-05-05 16:37 48.99116 -2.80284 35222 ft 441 kts 203°
2026-05-05 16:38 48.96318 -2.82206 35440 ft 442 kts 203°
2026-05-05 16:38 48.93509 -2.84134 35645 ft 442 kts 202°
2026-05-05 16:38 48.90704 -2.86058 35875 ft 442 kts 203°
2026-05-05 16:38 48.87896 -2.87979 36056 ft 443 kts 203°
2026-05-05 16:39 48.85085 -2.89897 36250 ft 443 kts 202°
2026-05-05 16:39 48.82269 -2.91815 36451 ft 443 kts 203°
2026-05-05 16:39 48.79454 -2.93734 36613 ft 444 kts 203°
2026-05-05 16:39 48.76628 -2.95655 36785 ft 445 kts 203°
2026-05-05 16:40 48.73806 -2.97573 36939 ft 446 kts 203°
2026-05-05 16:40 48.71000 -2.99479 36973 ft 448 kts 203°
2026-05-05 16:40 48.65303 -3.03347 36976 ft 448 kts 203°
2026-05-05 16:41 48.59587 -3.07211 36972 ft 451 kts 203°
2026-05-05 16:41 48.53862 -3.11074 36970 ft 451 kts 203°
2026-05-05 16:42 48.48119 -3.14923 36969 ft 451 kts 204°
2026-05-05 16:42 48.42385 -3.18765 36970 ft 451 kts 203°
2026-05-05 16:43 48.36651 -3.22605 36972 ft 451 kts 204°
2026-05-05 16:43 48.30913 -3.26440 36976 ft 451 kts 203°
2026-05-05 16:44 48.25176 -3.30265 36973 ft 451 kts 203°
2026-05-05 16:44 48.19444 -3.34074 36972 ft 451 kts 202°
2026-05-05 16:45 48.13707 -3.37877 36976 ft 450 kts 203°
2026-05-05 16:45 48.08012 -3.41632 36971 ft 450 kts 203°
2026-05-05 16:46 48.02277 -3.45417 36962 ft 451 kts 203°
2026-05-05 16:46 47.96532 -3.49194 36951 ft 451 kts 203°
2026-05-05 16:47 47.90784 -3.52965 36973 ft 451 kts 203°
2026-05-05 16:47 47.85041 -3.56731 36974 ft 451 kts 203°
2026-05-05 16:48 47.79292 -3.60496 36977 ft 451 kts 203°
2026-05-05 16:48 47.73551 -3.64239 36980 ft 451 kts 203°
2026-05-05 16:49 47.67813 -3.67966 36975 ft 450 kts 203°
2026-05-05 16:49 47.62067 -3.71693 36969 ft 450 kts 203°
2026-05-05 16:50 47.56323 -3.75404 36952 ft 450 kts 202°
2026-05-05 16:50 47.50580 -3.79106 36944 ft 451 kts 203°
2026-05-05 16:51 47.44857 -3.82792 36943 ft 452 kts 202°
2026-05-05 16:51 47.39086 -3.86497 36942 ft 453 kts 203°
2026-05-05 16:52 47.33300 -3.90202 36946 ft 453 kts 203°
2026-05-05 16:52 47.27514 -3.93902 36942 ft 454 kts 202°
2026-05-05 16:53 47.21716 -3.97597 36943 ft 454 kts 202°
2026-05-05 16:53 47.15914 -4.01287 36945 ft 454 kts 202°
2026-05-05 16:54 47.10111 -4.04971 36949 ft 455 kts 203°
2026-05-05 16:54 47.04292 -4.08654 36945 ft 455 kts 203°
2026-05-05 16:55 46.98472 -4.12326 36946 ft 456 kts 203°
2026-05-05 16:55 46.92642 -4.15992 36948 ft 456 kts 203°
2026-05-05 16:56 46.86839 -4.19643 36953 ft 457 kts 203°
2026-05-05 16:56 46.80997 -4.23323 36947 ft 458 kts 203°
2026-05-05 16:57 46.75140 -4.27001 36947 ft 458 kts 203°
2026-05-05 16:57 46.69265 -4.30653 36948 ft 459 kts 203°
2026-05-05 16:58 46.63391 -4.34298 36953 ft 459 kts 203°
2026-05-05 16:58 46.57515 -4.37953 36961 ft 459 kts 203°
2026-05-05 16:59 46.51640 -4.41600 36962 ft 459 kts 203°
2026-05-05 16:59 46.45752 -4.45241 36967 ft 460 kts 203°
2026-05-05 17:00 46.39903 -4.48837 36967 ft 460 kts 203°
2026-05-05 17:00 46.34012 -4.52455 36973 ft 460 kts 203°
2026-05-05 17:01 46.28111 -4.56076 36975 ft 460 kts 203°
2026-05-05 17:01 46.22211 -4.59687 36979 ft 460 kts 204°
2026-05-05 17:02 46.16311 -4.63292 36996 ft 460 kts 203°
2026-05-05 17:02 46.10418 -4.66889 36988 ft 460 kts 203°
2026-05-05 17:03 46.04521 -4.70480 36986 ft 460 kts 204°
2026-05-05 17:03 45.98656 -4.74032 36986 ft 460 kts 204°
2026-05-05 17:04 45.92754 -4.77610 36981 ft 461 kts 204°
2026-05-05 17:04 45.86842 -4.81195 36980 ft 461 kts 203°
2026-05-05 17:05 45.80918 -4.84759 36982 ft 462 kts 204°
2026-05-05 17:05 45.74988 -4.88328 37003 ft 462 kts 204°
2026-05-05 17:06 45.69057 -4.91883 37001 ft 462 kts 203°
2026-05-05 17:06 45.63125 -4.95422 37001 ft 462 kts 204°
2026-05-05 17:07 45.57188 -4.98967 37013 ft 462 kts 204°
2026-05-05 17:07 45.51252 -5.02507 37010 ft 462 kts 204°
2026-05-05 17:08 45.45351 -5.06019 37007 ft 463 kts 204°
2026-05-05 17:08 45.39405 -5.09542 37008 ft 463 kts 205°
2026-05-05 17:09 45.33447 -5.13071 37011 ft 463 kts 203°
2026-05-05 17:09 45.27491 -5.16587 37014 ft 464 kts 204°
2026-05-05 17:10 45.21531 -5.20085 37014 ft 463 kts 204°
2026-05-05 17:10 45.16581 -5.22990 37015 ft 463 kts 204°
2026-05-05 17:11 45.10627 -5.26478 37019 ft 463 kts 203°
2026-05-05 17:11 45.03722 -5.30541 37019 ft 462 kts 204°
2026-05-05 17:12 44.98786 -5.33429 37024 ft 461 kts 203°
2026-05-05 17:12 44.92844 -5.36879 37012 ft 462 kts 204°
2026-05-05 17:13 44.86901 -5.40331 37016 ft 462 kts 204°
2026-05-05 17:13 44.80955 -5.43779 37018 ft 462 kts 204°
2026-05-05 17:14 44.75008 -5.47220 37020 ft 462 kts 204°
2026-05-05 17:14 44.69068 -5.50647 37026 ft 462 kts 204°
2026-05-05 17:15 44.63120 -5.54068 37029 ft 461 kts 204°
2026-05-05 17:15 44.57200 -5.57529 37029 ft 461 kts 205°
2026-05-05 17:16 44.51340 -5.61191 37031 ft 461 kts 206°
2026-05-05 17:16 44.45499 -5.64877 37031 ft 461 kts 206°
2026-05-05 17:17 44.39669 -5.68479 37037 ft 461 kts 205°
2026-05-05 17:17 44.33795 -5.72075 37027 ft 461 kts 206°
2026-05-05 17:18 44.27917 -5.75664 37029 ft 461 kts 206°
2026-05-05 17:18 44.22038 -5.79254 37032 ft 461 kts 206°
2026-05-05 17:19 44.16152 -5.82856 37035 ft 461 kts 206°
2026-05-05 17:19 44.10278 -5.86445 37041 ft 461 kts 206°
2026-05-05 17:20 44.04397 -5.90022 37040 ft 461 kts 206°
2026-05-05 17:20 43.98512 -5.93580 37045 ft 461 kts 206°
2026-05-05 17:21 43.92663 -5.97110 37051 ft 461 kts 206°
2026-05-05 17:22 43.83845 -6.02445 37044 ft 461 kts 206°
2026-05-05 17:22 43.77968 -6.05986 37052 ft 460 kts 206°
2026-05-05 17:23 43.72096 -6.09505 37049 ft 460 kts 206°
2026-05-05 17:23 43.66227 -6.13018 37042 ft 460 kts 206°
2026-05-05 17:24 43.60354 -6.16524 37044 ft 460 kts 206°
2026-05-05 17:24 43.54475 -6.20028 37049 ft 460 kts 206°
2026-05-05 17:25 43.48607 -6.23524 37063 ft 459 kts 206°
2026-05-05 17:25 43.42741 -6.27016 37060 ft 459 kts 207°
2026-05-05 17:26 43.36906 -6.30477 37066 ft 459 kts 207°
2026-05-05 17:26 43.31052 -6.33943 37068 ft 458 kts 207°
2026-05-05 17:27 43.25194 -6.37405 37045 ft 458 kts 207°
2026-05-05 17:27 43.19334 -6.40852 37061 ft 458 kts 207°
2026-05-05 17:28 43.13474 -6.44288 37061 ft 458 kts 207°
2026-05-05 17:28 43.07623 -6.47722 37044 ft 457 kts 207°
2026-05-05 17:29 43.01777 -6.51158 37028 ft 457 kts 207°
2026-05-05 17:29 42.95919 -6.54584 37040 ft 457 kts 207°
2026-05-05 17:30 42.90070 -6.57983 37036 ft 457 kts 207°
2026-05-05 17:30 42.84253 -6.61361 37042 ft 457 kts 207°
2026-05-05 17:31 42.78400 -6.64758 37027 ft 456 kts 207°
2026-05-05 17:31 42.72568 -6.68142 37034 ft 456 kts 207°
2026-05-05 17:32 42.66735 -6.71518 37044 ft 455 kts 207°
2026-05-05 17:32 42.60906 -6.74883 37041 ft 455 kts 207°
2026-05-05 17:33 42.55071 -6.78233 37043 ft 455 kts 207°
2026-05-05 17:33 42.49240 -6.81584 37038 ft 455 kts 207°
2026-05-05 17:34 42.43452 -6.84906 37036 ft 455 kts 207°
2026-05-05 17:34 42.37624 -6.88242 37021 ft 455 kts 207°
2026-05-05 17:35 42.31796 -6.91568 37041 ft 454 kts 207°
2026-05-05 17:35 42.25976 -6.94896 37048 ft 454 kts 207°
2026-05-05 17:36 42.20162 -6.98204 37047 ft 453 kts 207°
2026-05-05 17:36 42.14354 -7.01500 37045 ft 453 kts 207°
2026-05-05 17:37 42.08543 -7.04795 37053 ft 452 kts 207°
2026-05-05 17:37 42.02781 -7.08056 37046 ft 452 kts 207°
2026-05-05 17:38 41.96982 -7.11325 37018 ft 452 kts 207°
2026-05-05 17:38 41.91188 -7.14582 37054 ft 450 kts 207°
2026-05-05 17:39 41.85415 -7.17827 37049 ft 450 kts 207°
2026-05-05 17:39 41.79643 -7.21068 37052 ft 449 kts 207°
2026-05-05 17:40 41.73951 -7.24460 37018 ft 444 kts 214°
2026-05-05 17:40 41.68562 -7.28484 37034 ft 443 kts 214°
2026-05-05 17:41 41.63214 -7.32456 37038 ft 442 kts 214°
2026-05-05 17:41 41.57834 -7.36446 37043 ft 441 kts 214°
2026-05-05 17:42 41.52458 -7.40426 37016 ft 441 kts 214°
2026-05-05 17:42 41.47094 -7.44388 37036 ft 440 kts 214°
2026-05-05 17:43 41.41734 -7.48336 37045 ft 440 kts 214°
2026-05-05 17:43 41.36386 -7.52278 37045 ft 439 kts 214°
2026-05-05 17:44 41.31039 -7.56202 37025 ft 439 kts 213°
2026-05-05 17:44 41.25695 -7.60119 37045 ft 438 kts 213°
2026-05-05 17:45 41.20357 -7.64029 37048 ft 438 kts 213°
2026-05-05 17:45 41.15019 -7.67927 37051 ft 438 kts 213°
2026-05-05 17:46 41.09722 -7.71793 37046 ft 437 kts 213°
2026-05-05 17:46 41.04387 -7.75671 37051 ft 436 kts 213°
2026-05-05 17:47 40.99064 -7.79529 37056 ft 436 kts 213°
2026-05-05 17:47 40.93743 -7.83391 37062 ft 435 kts 213°
2026-05-05 17:48 40.88431 -7.87237 37059 ft 435 kts 213°
2026-05-05 17:48 40.83118 -7.91076 37056 ft 434 kts 213°
2026-05-05 17:49 40.77849 -7.94873 37064 ft 434 kts 213°
2026-05-05 17:49 40.72550 -7.98686 37063 ft 433 kts 213°
2026-05-05 17:50 40.67264 -8.02476 37062 ft 433 kts 213°
2026-05-05 17:50 40.61973 -8.06264 37047 ft 432 kts 213°
2026-05-05 17:51 40.56727 -8.10019 37060 ft 431 kts 213°
2026-05-05 17:51 40.51451 -8.13791 37064 ft 431 kts 213°
2026-05-05 17:52 40.46182 -8.17551 37062 ft 430 kts 213°
2026-05-05 17:52 40.40914 -8.21298 37070 ft 431 kts 213°
2026-05-05 17:53 40.35637 -8.25050 37070 ft 431 kts 213°
2026-05-05 17:53 40.30365 -8.28789 37068 ft 431 kts 213°
2026-05-05 17:54 40.25122 -8.32503 37072 ft 430 kts 213°
2026-05-05 17:54 40.19851 -8.36227 37056 ft 431 kts 213°
2026-05-05 17:55 40.14574 -8.39946 37055 ft 430 kts 213°
2026-05-05 17:55 40.09300 -8.43667 37066 ft 430 kts 213°
2026-05-05 17:56 40.04029 -8.47368 37069 ft 430 kts 213°
2026-05-05 17:56 39.98757 -8.51063 37082 ft 430 kts 213°
2026-05-05 17:57 39.93517 -8.54731 37056 ft 430 kts 213°
2026-05-05 17:57 39.88251 -8.58416 37077 ft 429 kts 213°
2026-05-05 17:58 39.82998 -8.62093 37085 ft 429 kts 213°
2026-05-05 17:58 39.77741 -8.65753 37090 ft 428 kts 213°
2026-05-05 17:59 39.72486 -8.69400 37088 ft 428 kts 213°
2026-05-05 17:59 39.67231 -8.73042 37067 ft 428 kts 213°
2026-05-05 18:00 39.62872 -8.76074 37076 ft 427 kts 213°
2026-05-05 18:00 39.57629 -8.79708 37085 ft 427 kts 213°
2026-05-05 18:01 39.52384 -8.83332 37085 ft 427 kts 213°
2026-05-05 18:01 39.47142 -8.86948 37082 ft 427 kts 213°
2026-05-05 18:02 39.41906 -8.90545 37068 ft 426 kts 213°
2026-05-05 18:02 39.36664 -8.94143 37086 ft 426 kts 213°
2026-05-05 18:03 39.31436 -8.97727 37087 ft 425 kts 213°
2026-05-05 18:03 39.26216 -9.01311 37087 ft 425 kts 213°
2026-05-05 18:04 39.20989 -9.04893 37070 ft 425 kts 213°
2026-05-05 18:04 39.15765 -9.08459 37094 ft 424 kts 213°
2026-05-05 18:05 39.10558 -9.12009 37094 ft 423 kts 213°
2026-05-05 18:05 39.05354 -9.15553 37096 ft 423 kts 213°
2026-05-05 18:06 39.00146 -9.19081 37098 ft 422 kts 213°
2026-05-05 18:06 38.94983 -9.22576 37086 ft 422 kts 213°
2026-05-05 18:07 38.89796 -9.26086 37092 ft 421 kts 213°
2026-05-05 18:07 38.84612 -9.29589 37092 ft 421 kts 213°
2026-05-05 18:08 38.79439 -9.33078 37089 ft 420 kts 213°
2026-05-05 18:08 38.74271 -9.36577 37090 ft 419 kts 214°
2026-05-05 18:09 38.69255 -9.40351 37083 ft 417 kts 217°
2026-05-05 18:09 38.64352 -9.44329 37091 ft 417 kts 217°
2026-05-05 18:10 38.59433 -9.48269 37097 ft 417 kts 217°
2026-05-05 18:10 38.54474 -9.52135 37101 ft 418 kts 216°
2026-05-05 18:11 38.49497 -9.55982 37076 ft 418 kts 216°
2026-05-05 18:11 38.44554 -9.59809 37084 ft 418 kts 216°
2026-05-05 18:12 38.39583 -9.63665 37092 ft 418 kts 216°
2026-05-05 18:12 38.34613 -9.67516 37096 ft 418 kts 216°
2026-05-05 18:13 38.29642 -9.71368 37103 ft 418 kts 216°
2026-05-05 18:13 38.24661 -9.75209 37087 ft 418 kts 216°
2026-05-05 18:14 38.19720 -9.79019 37086 ft 418 kts 216°
2026-05-05 18:14 38.14736 -9.82845 37092 ft 418 kts 216°
2026-05-05 18:15 38.09758 -9.86668 37106 ft 418 kts 216°
2026-05-05 18:15 38.04779 -9.90494 37106 ft 418 kts 216°
2026-05-05 18:16 37.99796 -9.94308 37107 ft 418 kts 216°
2026-05-05 18:16 37.94842 -9.98091 37106 ft 419 kts 216°
2026-05-05 18:17 37.89849 -10.01895 37110 ft 419 kts 216°
2026-05-05 18:17 37.84854 -10.05695 37109 ft 418 kts 216°
2026-05-05 18:18 37.79868 -10.09495 37113 ft 418 kts 216°
2026-05-05 18:18 37.74874 -10.13287 37087 ft 418 kts 216°
2026-05-05 18:19 37.69879 -10.17065 37091 ft 418 kts 216°
2026-05-05 18:19 37.64887 -10.20842 37110 ft 418 kts 215°
2026-05-05 18:20 37.59890 -10.24624 37103 ft 419 kts 216°
2026-05-05 18:20 37.54891 -10.28406 37117 ft 419 kts 215°
2026-05-05 18:21 37.49910 -10.32156 37091 ft 419 kts 215°
2026-05-05 18:21 37.44898 -10.35919 37099 ft 419 kts 215°
2026-05-05 18:22 37.39892 -10.39685 37112 ft 419 kts 215°
2026-05-05 18:22 37.34883 -10.43442 37110 ft 419 kts 215°
2026-05-05 18:23 37.29874 -10.47197 37117 ft 419 kts 215°
2026-05-05 18:23 37.24856 -10.50946 37116 ft 419 kts 215°
2026-05-05 18:24 37.19835 -10.54692 37105 ft 420 kts 215°
2026-05-05 18:24 37.14808 -10.58434 37113 ft 420 kts 214°
2026-05-05 18:25 37.09777 -10.62182 37119 ft 421 kts 215°
2026-05-05 18:25 37.04743 -10.65924 37126 ft 421 kts 214°
2026-05-05 18:26 36.99697 -10.69653 37128 ft 421 kts 214°
2026-05-05 18:26 36.94652 -10.73379 37117 ft 421 kts 214°
2026-05-05 18:27 36.89649 -10.77094 37122 ft 421 kts 214°
2026-05-05 18:27 36.84608 -10.80825 37127 ft 421 kts 214°
2026-05-05 18:28 36.77033 -10.86387 37131 ft 421 kts 214°
2026-05-05 18:28 36.71990 -10.90099 37117 ft 421 kts 214°
2026-05-05 18:29 36.66946 -10.93815 37124 ft 421 kts 214°
2026-05-05 18:29 36.61894 -10.97516 37125 ft 421 kts 214°
2026-05-05 18:30 36.56835 -11.01213 37129 ft 421 kts 214°
2026-05-05 18:30 36.51787 -11.04912 37136 ft 421 kts 214°
2026-05-05 18:31 36.46732 -11.08601 37123 ft 421 kts 214°
2026-05-05 18:31 36.41678 -11.12292 37124 ft 422 kts 214°
2026-05-05 18:32 36.36607 -11.15975 37130 ft 422 kts 214°
2026-05-05 18:32 36.31569 -11.19638 37131 ft 423 kts 214°
2026-05-05 18:33 36.26491 -11.23322 37134 ft 423 kts 214°
2026-05-05 18:33 36.21400 -11.27002 37116 ft 423 kts 214°
2026-05-05 18:34 36.16321 -11.30674 37129 ft 423 kts 214°
2026-05-05 18:34 36.11235 -11.34347 37134 ft 423 kts 214°
2026-05-05 18:35 36.06184 -11.37985 37142 ft 423 kts 214°
2026-05-05 18:35 36.01072 -11.41665 37145 ft 423 kts 214°
2026-05-05 18:36 35.96056 -11.45358 37139 ft 420 kts 219°
2026-05-05 18:36 35.91304 -11.49547 37125 ft 420 kts 219°
2026-05-05 18:37 35.86543 -11.53736 37130 ft 420 kts 219°
2026-05-05 18:37 35.81783 -11.57908 37136 ft 420 kts 219°
2026-05-05 18:38 35.77016 -11.62087 37135 ft 420 kts 219°
2026-05-05 18:38 35.72247 -11.66254 37137 ft 420 kts 219°
2026-05-05 18:39 35.67479 -11.70415 37129 ft 420 kts 219°
2026-05-05 18:39 35.62713 -11.74578 37125 ft 420 kts 219°
2026-05-05 18:40 35.57972 -11.78701 37137 ft 420 kts 219°
2026-05-05 18:40 35.53196 -11.82854 37138 ft 420 kts 219°
2026-05-05 18:41 35.48420 -11.86998 37140 ft 420 kts 219°
2026-05-05 18:41 35.43644 -11.91138 37138 ft 420 kts 219°
2026-05-05 18:42 35.38864 -11.95278 37147 ft 420 kts 219°
2026-05-05 18:42 35.34086 -11.99415 37145 ft 420 kts 219°
2026-05-05 18:43 35.29311 -12.03542 37141 ft 420 kts 218°
2026-05-05 18:43 35.24525 -12.07665 37142 ft 420 kts 218°
2026-05-05 18:44 35.19779 -12.11758 37145 ft 420 kts 218°
2026-05-05 18:44 35.14990 -12.15870 37127 ft 424 kts 218°
2026-05-05 18:45 35.10101 -12.20068 37137 ft 434 kts 218°
2026-05-05 18:45 35.05123 -12.24334 37132 ft 438 kts 218°
2026-05-05 18:46 35.00938 -12.27912 37136 ft 439 kts 218°
2026-05-05 18:46 34.95964 -12.32161 37131 ft 439 kts 218°
2026-05-05 18:47 34.90954 -12.36427 37132 ft 439 kts 218°
2026-05-05 18:47 34.85950 -12.40682 37120 ft 439 kts 218°
2026-05-05 18:48 34.80935 -12.44942 37126 ft 439 kts 218°
2026-05-05 18:48 34.75929 -12.49201 37132 ft 439 kts 218°
2026-05-05 18:49 34.70914 -12.53456 37137 ft 439 kts 218°
2026-05-05 18:49 34.65937 -12.57674 37134 ft 439 kts 218°
2026-05-05 18:50 34.60923 -12.61908 37138 ft 439 kts 218°
2026-05-05 18:50 34.55922 -12.66122 37124 ft 431 kts 218°
2026-05-05 18:51 34.51064 -12.70201 37125 ft 421 kts 218°
2026-05-05 18:51 34.46262 -12.74252 37123 ft 420 kts 218°
2026-05-05 18:52 34.41469 -12.78291 37126 ft 420 kts 218°
2026-05-05 18:52 34.36669 -12.82322 37128 ft 420 kts 218°
2026-05-05 18:53 34.31869 -12.86346 37123 ft 420 kts 218°
2026-05-05 18:53 34.27070 -12.90363 37113 ft 420 kts 218°
2026-05-05 18:54 34.22272 -12.94389 37110 ft 420 kts 218°
2026-05-05 18:54 34.17526 -12.98410 37117 ft 420 kts 218°
2026-05-05 18:55 34.12741 -13.02452 37116 ft 420 kts 218°
2026-05-05 18:55 34.07944 -13.06485 37120 ft 420 kts 218°
2026-05-05 18:56 34.03151 -13.10511 37119 ft 420 kts 218°
2026-05-05 18:56 33.98356 -13.14529 37111 ft 420 kts 218°
2026-05-05 18:57 33.93559 -13.18541 37114 ft 420 kts 218°
2026-05-05 18:57 33.88756 -13.22560 37107 ft 420 kts 218°
2026-05-05 18:58 33.83962 -13.26564 37124 ft 420 kts 218°
2026-05-05 18:58 33.79164 -13.30569 37109 ft 419 kts 218°
2026-05-05 18:59 33.74368 -13.34567 37098 ft 419 kts 218°
2026-05-05 18:59 33.69600 -13.38529 37107 ft 419 kts 218°
2026-05-05 19:00 33.64797 -13.42509 37110 ft 419 kts 218°
2026-05-05 19:00 33.60000 -13.46495 37114 ft 419 kts 218°
2026-05-05 19:01 33.55200 -13.50479 37123 ft 419 kts 218°
2026-05-05 19:01 33.50405 -13.54449 37125 ft 419 kts 218°
2026-05-05 19:02 33.45606 -13.58411 37097 ft 418 kts 218°
2026-05-05 19:02 33.40806 -13.62364 37108 ft 418 kts 218°
2026-05-05 19:03 33.36014 -13.66315 37110 ft 418 kts 218°
2026-05-05 19:03 33.31228 -13.70261 37113 ft 418 kts 218°
2026-05-05 19:04 33.26464 -13.74166 37117 ft 418 kts 218°
2026-05-05 19:04 33.21670 -13.78091 37117 ft 418 kts 218°
2026-05-05 19:05 33.16875 -13.82017 37101 ft 418 kts 218°
2026-05-05 19:05 33.12090 -13.85942 37100 ft 417 kts 218°
2026-05-05 19:06 33.07292 -13.89839 37110 ft 417 kts 218°
2026-05-05 19:06 33.02494 -13.93716 37115 ft 417 kts 218°
2026-05-05 19:07 32.97696 -13.97593 37113 ft 416 kts 218°
2026-05-05 19:07 32.92908 -14.01476 37113 ft 416 kts 218°
2026-05-05 19:08 32.88121 -14.05343 37093 ft 416 kts 218°
2026-05-05 19:08 32.83326 -14.09205 37105 ft 415 kts 218°
2026-05-05 19:09 32.78543 -14.13051 37110 ft 415 kts 218°
2026-05-05 19:09 32.73758 -14.16892 37111 ft 415 kts 218°
2026-05-05 19:10 32.69008 -14.20712 37111 ft 415 kts 218°
2026-05-05 19:10 32.64235 -14.24550 37107 ft 414 kts 218°
2026-05-05 19:11 32.59460 -14.28384 37107 ft 414 kts 218°
2026-05-05 19:11 32.54676 -14.32201 37108 ft 414 kts 218°
2026-05-05 19:12 32.49900 -14.36013 37106 ft 414 kts 218°
2026-05-05 19:12 32.45124 -14.39820 37105 ft 414 kts 218°
2026-05-05 19:13 32.40342 -14.43625 37103 ft 414 kts 218°
2026-05-05 19:13 32.35569 -14.47429 37103 ft 414 kts 218°
2026-05-05 19:14 32.30795 -14.51233 37081 ft 414 kts 218°
2026-05-05 19:14 32.26017 -14.55023 37093 ft 413 kts 218°
2026-05-05 19:15 32.21242 -14.58810 37093 ft 413 kts 218°
2026-05-05 19:15 32.16504 -14.62570 37092 ft 413 kts 218°
2026-05-05 19:16 32.11732 -14.66348 37091 ft 413 kts 218°
2026-05-05 19:16 32.06954 -14.70116 37089 ft 413 kts 217°
2026-05-05 19:17 32.02169 -14.73883 37091 ft 413 kts 218°
2026-05-05 19:17 31.97395 -14.77641 37083 ft 413 kts 218°
2026-05-05 19:18 31.92618 -14.81394 37079 ft 413 kts 218°
2026-05-05 19:18 31.87847 -14.85143 37080 ft 412 kts 218°
2026-05-05 19:19 31.83071 -14.88899 37083 ft 412 kts 218°
2026-05-05 19:19 31.78297 -14.92648 37082 ft 412 kts 218°
2026-05-05 19:20 31.73523 -14.96390 37074 ft 413 kts 217°
2026-05-05 19:20 31.68740 -15.00122 37070 ft 412 kts 217°
2026-05-05 19:21 31.63965 -15.03837 37080 ft 411 kts 217°
2026-05-05 19:21 31.59232 -15.07526 37086 ft 411 kts 217°
2026-05-05 19:22 31.54442 -15.11255 37086 ft 410 kts 217°
2026-05-05 19:22 31.49722 -15.14935 37085 ft 410 kts 217°
2026-05-05 19:23 31.44964 -15.18634 37081 ft 410 kts 217°
2026-05-05 19:23 31.40213 -15.22319 37080 ft 409 kts 217°
2026-05-05 19:24 31.35469 -15.25995 37082 ft 408 kts 217°
2026-05-05 19:24 31.30745 -15.29649 37086 ft 407 kts 217°
2026-05-05 19:25 31.25908 -15.33025 37082 ft 408 kts 213°
2026-05-05 19:25 31.20881 -15.36142 37080 ft 409 kts 212°
2026-05-05 19:26 31.15855 -15.39242 37083 ft 408 kts 212°
2026-05-05 19:26 31.10865 -15.42397 37071 ft 407 kts 213°
2026-05-05 19:27 31.05915 -15.45563 37089 ft 404 kts 213°
2026-05-05 19:27 31.00981 -15.48719 37090 ft 403 kts 213°
2026-05-05 19:28 30.96065 -15.51846 37084 ft 402 kts 213°
2026-05-05 19:28 30.91152 -15.54954 37080 ft 402 kts 213°
2026-05-05 19:29 30.86266 -15.58036 37077 ft 401 kts 213°
2026-05-05 19:29 30.81361 -15.61128 37069 ft 399 kts 214°
2026-05-05 19:30 30.76500 -15.64192 37097 ft 396 kts 214°
2026-05-05 19:30 30.71670 -15.67244 37100 ft 395 kts 214°
2026-05-05 19:31 30.66843 -15.70294 37087 ft 395 kts 214°
2026-05-05 19:31 30.62042 -15.73324 37080 ft 395 kts 214°
2026-05-05 19:32 30.57204 -15.76371 37075 ft 395 kts 213°
2026-05-05 19:32 30.52376 -15.79404 37066 ft 393 kts 214°
2026-05-05 19:33 30.47575 -15.82407 37089 ft 390 kts 214°
2026-05-05 19:33 30.43615 -15.84882 37090 ft 388 kts 214°
2026-05-05 19:34 30.38871 -15.87856 37087 ft 387 kts 214°
2026-05-05 19:35 30.31773 -15.92292 37080 ft 386 kts 214°
2026-05-05 19:35 30.27053 -15.95239 37070 ft 385 kts 214°
2026-05-05 19:36 30.22337 -15.98184 37061 ft 384 kts 214°
2026-05-05 19:36 30.17642 -16.01115 37069 ft 383 kts 214°
2026-05-05 19:37 30.12943 -16.04037 37066 ft 383 kts 214°
2026-05-05 19:37 30.08244 -16.06957 37065 ft 383 kts 214°
2026-05-05 19:38 30.03567 -16.09858 37062 ft 383 kts 214°
2026-05-05 19:38 29.98863 -16.12778 37060 ft 383 kts 214°
2026-05-05 19:39 29.94164 -16.15690 37028 ft 383 kts 214°
2026-05-05 19:39 29.89467 -16.18596 37047 ft 382 kts 214°
2026-05-05 19:40 29.84779 -16.21488 37055 ft 382 kts 214°
2026-05-05 19:40 29.80095 -16.24376 37060 ft 381 kts 214°
2026-05-05 19:41 29.75418 -16.27261 37062 ft 381 kts 214°
2026-05-05 19:41 29.70748 -16.30143 37061 ft 381 kts 214°
2026-05-05 19:42 29.66071 -16.33021 37060 ft 381 kts 214°
2026-05-05 19:42 29.61424 -16.35881 37060 ft 381 kts 214°
2026-05-05 19:43 29.57080 -16.39237 37053 ft 374 kts 224°
2026-05-05 19:43 29.53062 -16.43054 37047 ft 375 kts 224°
2026-05-05 19:44 29.49021 -16.46857 37049 ft 375 kts 223°
2026-05-05 19:44 29.44977 -16.50656 37048 ft 376 kts 223°
2026-05-05 19:45 29.40929 -16.54464 37047 ft 376 kts 224°
2026-05-05 19:45 29.36882 -16.58274 37048 ft 376 kts 224°
2026-05-05 19:46 29.32839 -16.62073 37030 ft 376 kts 224°
2026-05-05 19:46 29.28823 -16.65838 37044 ft 375 kts 224°
2026-05-05 19:47 29.24790 -16.69619 37057 ft 374 kts 224°
2026-05-05 19:47 29.20759 -16.73400 37055 ft 375 kts 223°
2026-05-05 19:48 29.16722 -16.77175 37048 ft 375 kts 223°
2026-05-05 19:48 29.12683 -16.80950 37048 ft 375 kts 223°
2026-05-05 19:49 29.08632 -16.84724 37046 ft 375 kts 223°
2026-05-05 19:49 29.04584 -16.88499 37048 ft 375 kts 223°
2026-05-05 19:50 29.00518 -16.92294 37054 ft 382 kts 223°
2026-05-05 19:50 28.96372 -16.96160 37048 ft 391 kts 223°
2026-05-05 19:51 28.92145 -17.00087 37051 ft 392 kts 223°
2026-05-05 19:51 28.87914 -17.04016 37046 ft 392 kts 223°
2026-05-05 19:51 28.85797 -17.05980 36559 ft 392 kts 223°
2026-05-05 19:52 28.83683 -17.07938 35997 ft 391 kts 223°
2026-05-05 19:52 28.79474 -17.11827 36307 ft 388 kts 223°
2026-05-05 19:52 28.77376 -17.13768 36520 ft 387 kts 223°
2026-05-05 19:53 28.75283 -17.15704 36058 ft 388 kts 223°
2026-05-05 19:53 28.73197 -17.17637 35443 ft 385 kts 223°
2026-05-05 19:53 28.71122 -17.19557 34839 ft 383 kts 222°
2026-05-05 19:53 28.69005 -17.21517 34215 ft 381 kts 222°
2026-05-05 19:54 28.60961 -17.28955 31763 ft 388 kts 221°
2026-05-05 19:54 28.52385 -17.36839 29164 ft 404 kts 221°
2026-05-05 19:54 28.41807 -17.40524 25935 ft 455 kts 164°
2026-05-05 19:54 28.33913 -17.28864 23076 ft 489 kts 118°
2026-05-05 19:55 28.27923 -17.15101 20023 ft 485 kts 127°
2026-05-05 19:55 28.20321 -17.02633 17066 ft 470 kts 131°
2026-05-05 19:55 28.14400 -16.95660 14873 ft 437 kts 157°
2026-05-05 19:55 28.11690 -16.94210 14185 ft 425 kts 163°
2026-05-05 19:56 28.08951 -16.93056 13471 ft 415 kts 166°
2026-05-05 19:56 28.06232 -16.92044 12703 ft 407 kts 166°
2026-05-05 19:56 28.03595 -16.91252 11945 ft 376 kts 178°
2026-05-05 19:56 28.01116 -16.91547 11219 ft 348 kts 202°
2026-05-05 19:57 27.99175 -16.92983 10576 ft 325 kts 231°
2026-05-05 19:57 27.98416 -16.94369 10511 ft 303 kts 246°
2026-05-05 19:57 27.97635 -16.97223 10361 ft 270 kts 256°
2026-05-05 19:57 27.97213 -16.99305 9626 ft 273 kts 257°
2026-05-05 19:58 27.96790 -17.01402 8846 ft 274 kts 252°
2026-05-05 19:58 27.96306 -17.03471 8100 ft 271 kts 254°
2026-05-05 19:58 27.95695 -17.05488 7362 ft 272 kts 249°
2026-05-05 19:58 27.94970 -17.07467 6637 ft 272 kts 247°
2026-05-05 19:59 27.94213 -17.09400 5913 ft 273 kts 247°
2026-05-05 19:59 27.93448 -17.11331 5507 ft 260 kts 247°
2026-05-05 19:59 27.92714 -17.13168 5337 ft 248 kts 244°
2026-05-05 19:59 27.91628 -17.14599 5224 ft 245 kts 213°
2026-05-05 20:00 27.90029 -17.15173 5098 ft 245 kts 180°
2026-05-05 20:00 27.88401 -17.14703 4979 ft 244 kts 153°
2026-05-05 20:00 27.86873 -17.13845 4850 ft 245 kts 148°
2026-05-05 20:00 27.85651 -17.12539 4739 ft 242 kts 120°
2026-05-05 20:01 27.85081 -17.10759 4612 ft 253 kts 93°
2026-05-05 20:01 27.85314 -17.08753 4486 ft 264 kts 68°
2026-05-05 20:01 27.86025 -17.06829 4356 ft 266 kts 65°
2026-05-05 20:01 27.86751 -17.04904 4225 ft 266 kts 65°
2026-05-05 20:02 27.87477 -17.02979 4112 ft 266 kts 65°
2026-05-05 20:02 27.88201 -17.01055 3982 ft 265 kts 65°
2026-05-05 20:02 27.88918 -16.99137 3856 ft 265 kts 65°
2026-05-05 20:02 27.89634 -16.97219 3747 ft 264 kts 65°
2026-05-05 20:03 27.90347 -16.95307 3603 ft 264 kts 66°
2026-05-05 20:03 27.91057 -16.93401 3533 ft 263 kts 65°
2026-05-05 20:03 27.91767 -16.91493 3414 ft 263 kts 65°
2026-05-05 20:03 27.92474 -16.89592 3289 ft 262 kts 66°
2026-05-05 20:04 27.93179 -16.87696 3161 ft 261 kts 65°
2026-05-05 20:04 27.93889 -16.85806 3045 ft 261 kts 65°
2026-05-05 20:04 27.94633 -16.83942 3006 ft 259 kts 64°
2026-05-05 20:04 27.95367 -16.82159 3005 ft 240 kts 63°
2026-05-05 20:05 27.96041 -16.80532 3006 ft 223 kts 63°
2026-05-05 20:05 27.96677 -16.78993 3008 ft 208 kts 63°
2026-05-05 20:05 27.97266 -16.77568 3025 ft 194 kts 63°
2026-05-05 20:05 27.97823 -16.76180 3021 ft 199 kts 65°
2026-05-05 20:06 27.98326 -16.74779 3010 ft 181 kts 66°
2026-05-05 20:06 27.98764 -16.73528 2870 ft 164 kts 66°
2026-05-05 20:06 27.99175 -16.72355 2682 ft 158 kts 66°
2026-05-05 20:06 27.99576 -16.71212 2487 ft 155 kts 66°
2026-05-05 20:07 27.99971 -16.70082 2288 ft 154 kts 66°
2026-05-05 20:07 28.00363 -16.68960 2090 ft 152 kts 63°
2026-05-05 20:07 28.00748 -16.67857 1885 ft 150 kts 63°
2026-05-05 20:07 28.01130 -16.66763 1687 ft 146 kts 65°
2026-05-05 20:08 28.01494 -16.65723 1502 ft 139 kts 64°
2026-05-05 20:08 28.01845 -16.64715 1323 ft 135 kts 64°
2026-05-05 20:08 28.02178 -16.63759 1159 ft 127 kts 64°
2026-05-05 20:08 28.02527 -16.62847 1009 ft 125 kts 65°
2026-05-05 20:09 28.02843 -16.61885 811 ft 132 kts 70°
2026-05-05 20:09 28.03167 -16.60915 592 ft 132 kts 71°
2026-05-05 20:09 28.03491 -16.59970 457 ft 128 kts 72°
2026-05-05 20:09 28.03829 -16.59024 292 ft 130 kts 70°
2026-05-05 20:10 28.04147 -16.58089 202 ft 121 kts 70°
2026-05-05 20:10 28.04411 -16.57351 207 ft 77 kts 69°
2026-05-05 20:10 28.04579 -16.56975 210 ft 40 kts 48°
2026-05-05 20:10 28.04739 -16.56778 208 ft 20 kts 30°
2026-05-05 20:11 28.04791 -16.56794 216 ft 2 kts 266°
2026-05-05 20:11 28.04775 -16.56863 208 ft 18 kts 249°
2026-05-05 20:11 28.04727 -16.57001 207 ft 19 kts 248°
2026-05-05 20:11 28.04697 -16.57134 213 ft 17 kts 292°
2026-05-05 20:12 28.04788 -16.57195 210 ft 14 kts 311°
2026-05-05 20:12 28.04764 -16.57291 212 ft 13 kts 244°
2026-05-05 20:12 28.04729 -16.57385 207 ft 13 kts 248°
2026-05-05 20:12 28.04695 -16.57477 206 ft 13 kts 247°
2026-05-05 20:13 28.04663 -16.57568 211 ft 12 kts 257°
2026-05-05 20:13 28.04713 -16.57622 209 ft 10 kts 340°
2026-05-05 20:13 28.04728 -16.57628 206 ft 0 kts 339°